CAPE
782 762 621 576 773 482 352 104 46 7 152 142 4 0 0 56 50 16 247 120 119 140 154 171 194 242 205 210 161 169 338 459 493 656 592 441 666 1269 1194 1089 985 782 851 1016 845 586 533 515 121 168 70 18 11 1 0 0 0 0 0 0 0 0 1 4 2 1 0 0 0 0 0 2 14 64 78 39 35 61 165 193 196 188 178 173 154
915 796 775 719 618 363 259 181 123 74 64 47 124 36 114 200 119 161 36 30 234 246 130 192 279 176 153 216 301 312 271 311 353 343 413 504 559 830 832 672 664 557 590 779 892 758 528 171 130 154 27 6 2 0 0 0 0 0 0 0 0 0 0 2 2 2 0 0 0 0 0 0 4 22 106 113 123 183 213 206 158 110 74 94 112
1106 891 669 656 450 306 174 109 122 53 93 107 68 108 176 112 144 126 152 202 263 170 222 203 138 242 390 112 0 40 274 396 504 638 656 430 356 658 846 823 664 650 782 864 832 414 210 216 186 121 92 14 20 0 0 0 0 0 0 0 0 0 0 0 1 2 0 1 0 0 0 0 0 1 15 103 256 321 300 296 238 158 92 46 25
1135 972 673 526 460 323 371 256 210 260 115 243 197 80 86 31 80 133 146 158 122 236 280 280 237 51 0 0 16 116 110 162 470 703 581 320 415 330 244 363 626 908 849 645 671 591 468 381 320 260 169 40 11 2 0 0 0 0 0 0 0 0 0 0 0 0 0 6 0 0 0 2 0 0 6 92 190 300 394 396 359 272 179 30 4
930 812 729 587 537 391 448 468 292 338 152 186 92 13 0 0 229 158 108 94 43 12 52 4 0 0 11 49 94 136 218 326 672 768 614 635 479 277 127 110 387 402 275 366 692 742 587 473 418 316 219 161 81 56 0 0 0 0 0 0 0 0 0 0 0 0 0 1 1 0 0 2 6 4 12 128 178 272 389 426 442 388 300 195 149
892 854 612 526 482 334 308 370 183 132 56 12 10 7 0 0 0 0 0 0 0 0 0 0 92 0 0 0 0 0 59 214 648 860 918 851 690 301 376 803 1016 862 738 696 683 790 827 585 357 256 246 166 89 57 7 0 0 0 0 0 0 0 0 0 0 0 0 0 1 2 0 2 4 2 2 35 161 201 358 411 435 425 356 334 308
932 797 528 578 492 412 323 118 69 84 120 37 5 38 26 0 0 2 0 0 0 0 0 0 19 0 0 21 78 133 376 172 66 852 859 472 294 292 294 453 508 437 504 718 901 920 884 788 631 451 362 336 284 74 16 0 0 0 0 0 5 0 0 0 0 0 0 0 0 0 1 0 5 8 0 19 108 285 388 463 456 450 422 384 407
851 806 781 790 728 698 569 364 104 88 174 216 148 46 2 4 46 147 99 86 34 8 4 0 0 45 81 43 23 76 18 651 1036 908 636 381 344 435 416 355 313 240 203 270 476 636 718 758 755 634 530 409 174 48 39 63 6 0 0 3 6 8 11 28 10 0 0 0 2 1 0 1 0 0 1 10 49 212 333 324 230 199 214 271 383
1061 1139 1057 995 960 904 712 470 316 246 504 479 338 190 94 100 117 206 358 234 144 48 43 39 28 62 44 7 4 4 407 374 698 390 192 347 403 536 594 551 467 405 324 250 299 555 787 808 662 581 394 295 0 0 0 3 1 11 65 53 18 32 45 54 49 24 8 3 3 1 5 3 0 0 2 4 17 32 64 132 200 162 208 244 258
1255 1432 1388 1286 1231 1082 806 534 335 319 347 305 180 143 134 173 273 234 223 202 220 239 142 202 285 138 14 0 6 252 368 203 372 286 504 590 519 681 823 749 632 492 341 347 506 484 438 387 386 704 46 40 3 142 0 0 9 60 110 94 31 40 41 86 78 56 40 24 12 12 10 6 2 0 1 0 3 12 27 50 132 169 160 148 253
1029 977 1008 1045 1226 1100 788 548 474 455 410 227 243 166 126 254 292 303 379 463 516 502 526 310 226 44 0 21 1 172 110 291 192 18 21 106 275 308 459 632 732 718 465 248 46 49 112 159 253 374 455 532 554 513 337 0 4 78 22 0 86 81 107 148 120 96 84 40 17 16 14 9 3 0 1 2 2 16 26 42 66 90 76 51 70
850 609 728 1042 1132 858 670 553 558 479 442 334 350 306 340 329 453 506 529 571 696 628 541 426 339 223 101 2 0 260 90 90 40 0 0 2 26 201 221 401 654 696 457 328 363 434 520 588 590 709 714 644 600 538 430 186 316 301 207 173 210 164 270 271 195 82 49 42 22 6 14 9 8 4 2 5 8 17 33 49 75 56 60 66 110
1041 1220 940 1070 865 722 554 436 432 402 344 352 285 282 276 466 560 599 608 672 787 861 713 529 471 446 166 0 0 110 92 144 99 5 0 2 4 2 53 330 473 565 619 642 694 794 821 703 873 904 726 592 686 517 482 502 536 456 300 303 323 422 370 271 188 109 68 53 40 31 23 22 18 10 8 16 20 30 38 57 47 54 41 16 27
1344 1300 1048 904 960 790 395 417 360 402 440 404 399 383 427 476 416 426 589 751 941 892 703 607 517 363 74 20 61 263 376 472 200 81 0 29 33 6 122 180 278 355 483 674 896 974 800 724 918 905 619 603 647 648 660 724 715 488 304 242 406 311 233 134 63 39 40 41 40 50 17 8 23 11 12 12 16 23 22 32 22 39 64 28 72
1129 1071 870 1126 1002 688 552 576 506 524 526 517 552 508 578 560 555 624 668 667 826 851 758 543 341 322 300 348 440 708 834 642 310 57 70 106 101 0 0 1 40 155 335 634 975 1012 734 752 933 858 696 672 691 850 971 942 571 360 420 396 274 151 52 38 30 20 22 11 12 10 18 7 2 5 4 0 0 1 12 24 28 24 32 108 128
1063 1056 895 1409 1080 778 652 612 747 722 746 701 628 609 575 499 558 739 950 919 802 670 574 543 492 450 237 333 706 745 750 649 226 164 208 165 24 0 0 0 39 241 533 814 924 870 836 844 893 756 681 599 478 687 797 750 639 498 330 169 23 1 11 30 14 10 1 1 3 18 11 2 1 0 0 0 2 4 16 27 28 43 47 30 24
1079 978 853 1346 1124 835 751 710 716 826 796 814 744 642 527 478 610 808 1004 998 904 800 602 363 304 306 167 494 643 687 378 252 272 269 172 0 0 0 0 124 342 490 586 674 801 874 849 769 722 792 773 500 392 468 659 771 540 272 28 0 0 0 1 0 1 0 0 0 0 8 3 0 0 0 0 0 0 0 4 26 32 26 22 15 13
1054 992 918 1140 1148 918 777 766 718 664 704 783 791 670 602 692 732 739 620 576 493 305 202 272 421 419 194 72 350 325 266 359 317 189 62 0 0 0 0 26 260 576 885 1091 1128 1022 931 1038 919 771 728 636 616 768 823 757 555 76 0 0 0 0 0 0 0 0 0 0 0 0 1 3 0 2 0 0 1 1 1 2 1 6 6 4 15
930 893 1043 1076 1104 969 868 811 726 652 581 618 687 729 698 696 696 653 566 445 372 345 456 523 421 369 102 1 41 2 41 1 36 54 0 24 54 18 98 392 782 967 998 924 904 916 902 755 827 1068 651 396 466 708 646 309 96 6 0 0 0 0 0 0 0 0 0 6 0 0 8 7 17 21 34 62 40 0 0 0 0 6 5 5 39
1016 885 1022 1144 1068 966 842 824 768 677 640 619 627 650 712 761 914 1029 934 727 583 525 494 373 237 176 222 144 70 34 5 3 218 0 0 0 0 0 81 547 708 807 730 716 719 799 922 844 292 297 579 348 12 4 28 73 48 34 44 26 0 0 0 0 0 4 22 21 8 2 14 18 14 16 12 8 15 0 0 0 0 4 6 4 19
937 826 880 975 975 911 823 737 688 637 651 734 786 836 724 1415 1444 903 579 541 510 535 750 582 308 171 22 83 3 18 44 1 42 0 0 0 0 2 271 300 265 52 0 0 1 75 324 428 410 614 397 0 0 8 160 212 144 124 149 132 4 0 1 4 6 19 25 30 18 0 14 22 13 12 140 32 7 0 0 0 0 1 2 3 9
852 732 654 655 752 770 776 738 659 676 872 953 804 1076 1036 466 275 483 202 337 576 810 716 462 239 212 3 0 2 4 309 125 65 56 2 0 255 226 284 92 0 0 0 0 2 94 244 335 648 484 0 0 0 128 287 273 210 206 213 184 81 4 11 9 10 6 1 5 7 0 11 20 78 129 248 236 8 10 0 0 0 0 0 0 4
754 702 733 638 561 592 718 966 1262 1021 814 634 529 1980 1395 516 84 177 233 270 687 916 572 462 376 321 215 66 145 166 173 261 89 238 11 0 131 199 104 20 0 0 0 0 0 0 0 248 256 0 0 0 117 277 322 257 196 184 121 20 56 25 32 3 2 0 0 0 1 4 12 20 96 228 304 252 46 16 2 0 0 0 0 0 1
1118 954 1021 1184 1490 1227 1178 1040 868 816 902 927 787 245 427 934 770 368 622 622 780 761 660 446 235 159 260 373 387 310 273 142 123 92 0 190 199 206 59 0 0 0 0 0 0 0 0 18 0 0 0 0 123 294 316 218 90 0 0 0 55 89 2 3 0 1 4 0 1 2 2 11 15 92 276 286 211 20 151 4 0 0 0 0 1
906 818 913 1803 1659 1235 1044 966 760 500 442 587 904 702 516 482 264 98 190 956 934 952 713 391 77 50 254 366 214 90 323 465 482 312 196 207 272 76 0 0 0 0 0 0 0 2 0 0 0 180 0 93 190 112 34 0 0 0 0 34 61 0 1 2 2 2 1 2 2 2 1 4 15 80 245 316 296 231 351 202 70 0 0 0 0
972 1370 1892 1586 1082 781 679 738 599 557 698 486 464 459 449 298 119 644 884 950 743 474 511 572 440 340 424 410 163 207 542 728 211 331 299 248 159 32 0 0 0 0 0 0 0 0 0 0 0 0 0 55 189 123 2 0 0 0 14 42 2 0 0 2 2 2 2 2 2 2 2 2 0 3 84 266 327 362 302 340 271 169 36 8 32
1625 1343 1552 1165 978 706 673 658 745 578 510 487 478 446 408 626 674 592 590 1062 1325 1272 906 910 1012 910 708 592 564 517 384 0 0 206 222 193 66 0 0 0 0 0 0 0 0 0 0 0 0 0 2 0 1 4 1 2 1 0 33 23 18 2 26 4 4 5 17 7 2 2 2 0 0 0 36 183 269 360 354 309 298 332 200 223 232
995 958 1107 1608 1201 982 1120 1685 845 496 444 425 435 392 288 53 0 358 314 336 196 9 123 123 182 411 260 436 178 353 2 0 77 171 93 17 0 0 0 0 0 0 0 0 0 0 0 51 5 0 12 0 0 0 0 0 0 0 0 0 1 1 2 2 2 4 20 48 6 2 2 1 0 0 0 119 193 162 38 219 211 191 272 327 196
1260 1228 1010 688 589 510 516 568 561 529 501 486 369 11 0 0 0 0 0 0 0 0 0 0 0 0 62 291 480 441 24 0 0 0 0 0 0 0 0 0 0 0 0 0 0 0 0 6 0 0 0 0 0 0 0 0 0 0 0 0 3 1 0 0 0 0 6 29 19 5 4 3 1 0 0 15 72 18 11 42 69 100 215 144 202
1156 688 656 588 499 510 554 582 540 401 194 0 0 0 0 0 0 14 56 0 0 0 0 0 0 0 0 0 0 0 0 0 0 0 0 0 0 0 0 0 0 0 0 0 1 0 0 0 0 0 0 0 0 0 0 0 0 0 0 0 0 0 0 0 0 0 0 3 5 3 1 6 2 2 1 0 0 24 19 28 20 37 128 186 182
537 353 436 414 212 320 378 395 185 0 0 0 0 9 145 162 123 0 0 0 0 0 0 0 0 0 0 0 0 0 0 0 0 0 0 0 0 0 0 0 0 0 0 0 0 0 0 0 0 0 0 0 0 0 0 0 0 0 0 0 0 0 0 0 0 0 0 0 0 0 0 5 14 2 2 2 0 0 6 18 42 36 5 62 47
447 275 203 208 553 366 204 399 418 352 4 0 0 0 0 0 0 0 0 0 0 0 0 0 0 0 0 0 0 0 0 0 0 0 0 0 0 0 0 0 0 0 0 0 0 0 0 0 0 0 0 4 5 4 3 4 3 1 0 0 0 0 0 0 0 0 0 0 0 0 0 6 35 24 2 2 0 10 15 16 36 50 10 14 0
368 254 682 784 867 1214 771 394 4 7 246 6 0 0 0 0 0 0 0 0 0 0 0 0 0 0 0 0 0 0 0 0 0 0 0 0 0 0 0 0 0 0 0 0 0 0 0 0 2 4 7 8 10 8 7 5 3 2 1 0 0 0 0 0 0 0 0 0 0 0 0 0 26 48 36 15 12 45 52 24 16 32 47 18 0
630 576 636 399 524 638 529 106 188 660 722 203 8 0 0 0 179 204 161 0 0 0 0 0 0 0 0 0 0 0 0 0 0 0 0 0 0 0 0 0 0 0 0 0 0 0 0 0 2 4 7 8 12 10 6 6 3 6 4 0 0 0 0 0 0 0 0 0 0 0 0 0 0 0 26 35 39 46 74 56 31 34 47 36 18
726 905 854 1769 569 887 630 750 353 253 336 603 788 476 328 262 202 232 158 0 0 0 0 0 0 0 0 0 0 0 0 0 0 0 0 0 0 0 0 0 0 0 0 0 0 0 0 1 0 3 4 6 2 3 5 3 2 2 0 0 0 0 0 0 0 0 0 0 0 0 0 0 0 0 0 4 22 33 57 64 62 52 52 40 30
746 569 448 775 1178 1020 1039 764 535 525 526 595 482 612 505 267 246 207 0 0 0 0 0 0 0 0 0 0 0 0 0 0 0 0 0 0 0 0 0 0 0 0 0 0 0 0 0 0 0 0 0 0 1 1 0 0 0 0 0 0 0 0 0 0 0 0 0 0 0 0 0 0 0 0 0 0 5 36 57 64 54 65 39 41 43
675 550 636 622 815 875 886 758 457 350 344 242 328 417 557 537 361 133 0 1 0 0 0 0 0 1 0 0 0 0 0 0 0 0 0 0 0 0 0 0 0 0 0 0 0 0 0 0 2 0 0 0 0 0 1 0 0 0 0 0 0 0 0 0 0 0 0 0 0 0 0 0 0 0 0 0 0 7 25 32 45 52 52 42 56
630 638 877 714 538 422 435 440 384 353 280 206 270 262 274 256 179 130 78 60 42 6 0 0 0 0 0 0 7 0 0 0 0 0 0 0 0 0 0 0 0 0 0 0 0 0 1 6 2 2 2 1 0 0 0 0 0 0 0 0 0 0 0 0 0 0 0 0 0 0 0 0 0 0 0 0 0 0 0 7 12 38 60 54 28
896 1027 849 525 367 329 372 333 326 320 290 316 340 296 233 93 62 21 1 17 26 17 15 6 0 0 0 0 0 0 0 0 0 0 2 0 0 0 0 0 0 0 0 0 0 0 0 2 0 2 2 1 0 0 0 1 0 0 0 0 0 0 0 0 0 0 0 0 0 0 0 0 0 0 0 0 0 0 0 0 6 23 34 40 45
598 547 635 585 490 461 583 693 526 388 428 416 304 156 138 94 0 0 0 0 0 0 7 2 0 0 0 0 0 0 0 0 0 0 0 0 0 0 0 0 0 0 0 0 0 0 0 0 0 0 0 0 0 0 0 0 0 0 0 0 0 0 0 0 0 0 0 0 0 0 0 0 0 0 0 0 0 0 0 0 0 6 7 8 36
869 864 560 393 394 355 657 530 480 425 445 367 225 127 0 0 2 32 0 2 0 18 0 0 0 0 0 0 0 0 0 0 0 0 0 0 0 0 0 0 0 0 0 0 0 0 0 0 0 0 0 0 0 0 0 0 0 0 0 0 0 0 0 0 0 0 0 0 0 0 0 0 0 0 0 0 0 0 0 0 0 0 8 8 16
619 499 444 318 390 484 469 576 429 525 402 294 179 46 0 2 0 0 46 28 24 15 0 0 0 0 0 0 0 0 0 0 0 0 0 0 0 0 0 0 0 0 0 0 0 0 0 0 0 0 0 0 0 0 0 0 0 0 0 0 0 0 0 0 0 0 0 0 0 0 0 0 0 0 0 0 0 0 0 0 0 0 0 0 12
719 722 850 694 416 552 422 403 402 388 351 302 130 90 18 0 0 0 2 2 1 13 0 0 0 0 0 0 0 0 0 0 0 0 0 0 0 0 0 0 0 0 0 0 0 0 0 0 0 0 0 0 0 0 0 0 0 0 0 0 0 0 0 0 0 0 0 0 0 0 0 0 0 0 0 0 0 0 0 0 0 0 0 0 0
415 630 656 620 330 318 354 370 350 304 268 171 8 0 0 0 0 0 0 0 0 0 0 0 0 0 0 0 0 0 0 0 0 0 0 2 0 0 0 0 0 0 0 0 0 0 0 0 0 0 0 0 0 0 0 0 0 0 0 0 0 0 0 0 0 0 0 0 0 0 0 0 0 0 0 0 0 0 0 0 0 0 0 0 0
220 248 202 183 238 274 304 276 220 216 23 52 0 0 3 2 0 0 0 0 2 0 0 0 0 0 0 0 0 0 0 0 0 0 0 0 0 0 0 0 0 0 0 0 0 0 0 0 0 0 0 0 0 0 0 0 0 0 0 0 0 0 0 0 0 0 0 0 0 0 0 0 0 0 0 0 0 0 0 0 0 0 0 0 0
120 224 244 221 194 217 229 208 150 45 0 0 0 0 0 0 1 0 0 0 3 0 0 0 0 0 0 0 0 0 0 0 0 0 0 0 0 0 0 0 0 0 0 0 0 0 0 0 0 0 0 0 0 0 0 0 0 0 0 0 0 0 0 0 0 0 0 0 0 0 0 0 0 0 0 0 0 0 0 0 0 0 0 0 0
2 2 4 223 184 127 78 84 26 0 0 1 0 0 0 0 2 3 2 4 0 2 1 0 0 0 0 0 0 0 0 0 0 0 0 0 0 0 0 0 0 0 0 0 0 0 0 0 0 0 0 0 0 0 0 0 0 0 0 0 0 0 0 0 0 0 0 0 0 0 0 0 0 0 0 0 0 0 0 0 0 0 0 0 0
5 51 8 137 141 118 45 16 56 139 22 12 13 7 1 2 4 6 5 2 2 5 3 0 2 0 0 0 0 0 0 0 0 0 0 0 0 0 0 0 0 0 0 0 0 0 0 0 0 0 0 0 0 0 0 0 0 0 0 0 0 0 0 0 0 0 0 0 0 0 0 0 0 0 0 0 0 0 0 0 0 0 0 0 0
0 0 0 12 124 40 40 25 38 22 30 34 32 24 14 16 11 10 1 3 4 4 4 2 0 0 0 0 0 0 0 0 0 0 0 0 0 0 0 0 0 0 0 0 0 0 0 0 0 0 0 0 0 0 0 0 0 0 0 0 0 0 0 0 0 0 0 0 0 0 0 0 0 0 0 0 0 0 0 0 0 0 0 0 0
0 2 2 8 16 26 50 40 32 29 34 43 40 18 2 2 2 22 9 1 1 0 0 0 0 0 0 0 0 0 0 0 0 0 0 0 0 0 0 0 0 0 0 0 0 0 0 0 0 0 0 0 0 0 0 0 0 0 0 0 0 0 0 0 0 0 0 0 0 0 0 0 0 0 0 0 0 0 0 0 0 0 0 0 0
0 0 0 5 10 14 18 16 12 16 17 16 14 1 1 1 1 0 0 0 0 0 0 0 0 0 0 0 0 0 0 0 0 0 0 0 0 0 0 0 0 0 0 0 0 0 0 0 0 0 0 0 0 0 0 0 0 0 0 0 0 0 0 0 0 0 0 0 0 0 0 0 0 0 0 0 0 0 0 0 0 0 0 0 0
Wind_Speed
33 32 32 32 33 32 32 31 nan nan 30 31 nan nan nan nan nan nan 35 32 30 30 31 31 32 35 36 36 38 38 38 38 39 38 38 38 39 41 42 43 43 43 44 43 45 45 46 49 50 50 nan nan nan nan nan nan nan nan nan nan nan nan nan nan nan nan nan nan nan nan nan nan nan nan nan nan nan nan 40 39 39 42 44 45 45
32 32 33 33 33 34 34 32 32 nan nan nan 34 nan 35 34 34 35 nan nan 31 31 31 32 35 36 38 39 40 41 40 40 39 40 40 41 42 43 43 44 43 42 43 43 44 44 47 50 50 49 nan nan nan nan nan nan nan nan nan nan nan nan nan nan nan nan nan nan nan nan nan nan nan nan 38 36 38 42 42 42 42 41 nan nan 45
34 35 36 35 35 35 35 33 33 nan nan 33 nan 36 35 34 34 35 34 32 31 31 31 33 35 37 39 41 nan nan 43 43 43 43 43 42 42 43 45 45 43 42 42 43 44 46 47 49 49 48 nan nan nan nan nan nan nan nan nan nan nan nan nan nan nan nan nan nan nan nan nan nan nan nan nan 36 37 40 41 42 43 43 nan nan nan
34 36 37 36 37 36 35 33 34 34 35 35 35 nan nan nan nan 36 36 34 33 31 33 35 38 nan nan nan nan 43 44 45 46 47 46 44 42 42 43 41 43 44 45 44 44 47 48 48 46 46 46 nan nan nan nan nan nan nan nan nan nan nan nan nan nan nan nan nan nan nan nan nan nan nan nan nan 36 39 40 41 45 44 42 nan nan
34 36 37 38 37 37 36 34 35 35 37 37 nan nan nan nan 39 38 38 nan nan nan nan nan nan nan nan nan nan 44 46 48 49 49 49 49 46 46 47 46 46 46 45 44 44 46 47 46 44 44 46 47 nan nan nan nan nan nan nan nan nan nan nan nan nan nan nan nan nan nan nan nan nan nan nan 37 38 39 39 39 43 45 42 40 44
34 36 38 38 37 37 35 35 36 37 nan nan nan nan nan nan nan nan nan nan nan nan nan nan nan nan nan nan nan nan nan 49 50 50 53 49 45 44 46 47 48 48 47 46 45 45 46 44 43 44 44 44 nan nan nan nan nan nan nan nan nan nan nan nan nan nan nan nan nan nan nan nan nan nan nan nan 38 39 39 39 42 46 44 42 44
34 37 39 39 37 36 35 34 nan nan 38 nan nan nan nan nan nan nan nan nan nan nan nan nan nan nan nan nan nan 48 50 49 nan 55 53 51 49 46 45 46 45 46 47 47 45 45 44 45 45 44 42 41 41 nan nan nan nan nan nan nan nan nan nan nan nan nan nan nan nan nan nan nan nan nan nan nan 36 36 38 41 42 45 44 42 42
37 38 39 38 36 35 34 34 35 nan 38 38 39 nan nan nan nan 42 nan nan nan nan nan nan nan nan nan nan nan nan nan 53 55 55 54 52 50 47 45 43 43 43 43 43 43 43 42 43 42 41 38 37 37 nan nan nan nan nan nan nan nan nan nan nan nan nan nan nan nan nan nan nan nan nan nan nan nan 37 38 38 38 40 41 41 41
39 40 39 37 36 35 33 34 36 38 39 41 41 42 nan nan 42 42 42 41 41 nan nan nan nan nan nan nan nan nan 53 55 55 55 53 52 52 49 48 48 45 42 39 37 39 40 40 40 39 37 42 44 nan nan nan nan nan nan nan nan nan nan nan nan nan nan nan nan nan nan nan nan nan nan nan nan nan nan nan 40 38 36 38 40 41
41 42 40 38 37 35 34 36 38 39 41 44 45 44 43 42 43 42 42 42 42 42 44 45 46 48 nan nan nan 50 54 54 54 55 55 54 52 50 49 47 44 40 39 39 40 40 40 40 39 43 nan nan nan 32 nan nan nan nan 38 nan nan nan nan nan nan nan nan nan nan nan nan nan nan nan nan nan nan nan nan nan 37 36 38 37 37
41 42 40 38 38 36 35 38 40 42 43 45 45 44 43 43 43 43 43 43 43 45 47 48 49 nan nan nan nan 54 54 53 54 nan nan 51 50 47 47 44 42 41 42 43 nan nan 40 39 40 35 31 33 33 33 31 nan nan nan nan nan nan nan 39 37 35 nan nan nan nan nan nan nan nan nan nan nan nan nan nan nan nan nan nan nan nan
41 41 41 41 39 37 36 39 42 43 45 45 45 44 44 44 45 45 44 43 44 47 48 49 50 51 52 nan nan 54 nan nan nan nan nan nan nan 46 43 40 38 38 39 41 43 43 39 37 36 32 30 31 32 32 31 30 30 31 31 35 39 35 37 39 36 nan nan nan nan nan nan nan nan nan nan nan nan nan nan nan nan nan nan nan 30
41 41 42 43 41 38 38 40 43 44 46 46 44 44 45 46 46 46 45 46 46 47 48 49 50 52 53 nan nan 53 nan 52 nan nan nan nan nan nan nan 40 36 34 36 40 42 40 36 33 31 30 29 28 30 32 32 31 29 29 31 33 32 33 32 32 35 35 nan nan nan nan nan nan nan nan nan nan nan nan nan nan nan nan nan nan nan
41 42 43 42 40 38 39 41 44 46 45 44 44 44 46 46 46 46 47 47 48 48 49 50 50 52 nan nan nan 52 52 53 55 nan nan nan nan nan 42 36 32 32 36 40 39 35 30 27 28 26 26 29 32 33 32 32 31 33 35 34 34 32 33 33 nan nan nan nan nan nan nan nan nan nan nan nan nan nan nan nan nan nan nan nan nan
40 41 41 40 38 38 40 42 44 45 44 43 45 46 47 46 46 47 48 49 49 51 52 52 51 52 52 52 52 52 51 55 55 nan nan 42 39 nan nan nan nan 32 36 38 35 30 24 24 28 27 26 28 30 30 31 33 34 33 32 31 32 34 nan nan nan nan nan nan nan nan nan nan nan nan nan nan nan nan nan nan nan nan nan 35 31
40 39 40 39 38 39 41 43 45 44 42 44 45 46 47 49 49 49 49 48 49 52 53 54 53 53 52 51 51 51 50 54 54 51 45 39 nan nan nan nan nan 32 35 34 30 26 24 24 25 25 27 29 27 28 33 34 34 33 32 31 nan nan nan nan nan nan nan nan nan nan nan nan nan nan nan nan nan nan nan nan nan nan nan nan nan
38 39 39 38 38 38 41 44 45 42 43 45 45 45 48 49 48 49 49 48 49 52 53 54 53 52 50 51 51 49 48 47 51 48 44 nan nan nan nan 34 30 31 33 33 28 26 25 24 24 25 28 28 30 37 34 33 33 33 nan nan nan nan nan nan nan nan nan nan nan nan nan nan nan nan nan nan nan nan nan nan nan nan nan nan nan
39 41 42 40 38 38 42 46 45 43 44 43 42 44 48 48 48 48 49 49 50 51 53 52 53 53 53 nan 54 51 48 44 45 44 nan nan nan nan nan nan 30 31 34 34 31 27 25 21 22 26 26 26 33 33 31 32 32 nan nan nan nan nan nan nan nan nan nan nan nan nan nan nan nan nan nan nan nan nan nan nan nan nan nan nan nan
42 44 43 41 38 38 42 45 45 45 43 40 42 45 46 45 45 46 48 51 52 53 53 54 56 54 53 nan nan nan nan nan nan nan nan nan nan nan nan 35 33 35 36 34 32 28 25 24 20 26 29 30 31 29 29 30 nan nan nan nan nan nan nan nan nan nan nan nan nan nan nan nan nan nan nan nan nan nan nan nan nan nan nan nan nan
43 45 44 40 37 39 42 44 44 43 39 38 43 45 43 42 44 47 48 51 52 53 54 56 55 52 55 55 nan nan nan nan 47 nan nan nan nan nan nan 39 36 36 37 34 30 27 25 28 27 31 33 30 nan nan nan nan nan nan nan nan nan nan nan nan nan nan nan nan nan nan nan nan nan nan nan nan nan nan nan nan nan nan nan nan nan
43 44 44 40 38 40 41 42 44 40 37 41 46 46 45 47 49 52 54 53 52 54 56 55 54 55 nan nan nan nan nan nan nan nan nan nan nan nan 40 39 38 nan nan nan nan nan 24 29 30 30 30 nan nan nan 25 29 31 30 30 29 nan nan nan nan nan nan nan nan nan nan nan nan nan nan 30 nan nan nan nan nan nan nan nan nan nan
42 42 41 39 39 42 43 42 43 41 42 48 51 50 50 52 52 55 56 52 51 56 57 57 57 57 nan nan nan nan 48 48 nan nan nan nan 43 44 41 nan nan nan nan nan nan nan 24 23 29 29 nan nan nan 24 26 27 27 28 27 24 nan nan nan nan nan nan nan nan nan nan nan nan nan 28 31 33 nan nan nan nan nan nan nan nan nan
43 41 39 40 42 45 46 46 47 47 49 52 54 55 56 55 nan 56 56 53 54 56 57 56 57 56 53 nan 49 47 46 45 nan 44 nan nan 44 44 43 nan nan nan nan nan nan nan nan 23 26 nan nan nan 24 28 30 27 27 26 21 nan nan nan nan nan nan nan nan nan nan nan nan nan nan 30 33 37 nan nan nan nan nan nan nan nan nan
42 40 41 44 47 49 50 50 50 50 52 54 57 57 55 56 59 57 54 55 56 58 57 57 53 50 51 51 50 48 47 46 45 nan nan 46 45 42 nan nan nan nan nan nan nan nan nan nan nan nan nan nan 23 32 34 30 nan nan nan nan nan nan nan nan nan nan nan nan nan nan nan nan nan nan 36 38 39 nan 37 nan nan nan nan nan nan
44 43 43 45 47 48 50 51 50 50 54 58 58 58 56 57 59 nan 56 58 59 59 58 55 nan nan 51 49 48 nan 47 46 46 46 44 42 42 nan nan nan nan nan nan nan nan nan nan nan nan 17 nan nan 25 31 nan nan nan nan nan nan nan nan nan nan nan nan nan nan nan nan nan nan nan nan 35 37 38 41 43 42 nan nan nan nan nan
43 43 44 46 48 51 52 51 52 54 57 59 59 58 60 60 58 59 59 61 60 59 56 53 50 49 49 48 47 47 47 46 46 43 42 40 40 nan nan nan nan nan nan nan nan nan nan nan nan nan nan nan 25 27 nan nan nan nan nan nan nan nan nan nan nan nan nan nan nan nan nan nan nan nan nan 36 41 43 41 42 40 27 nan nan nan
39 40 44 48 50 51 53 54 56 57 58 58 59 59 59 62 61 60 59 60 58 56 54 52 50 51 50 48 48 48 49 nan nan 43 41 41 nan nan nan nan nan nan nan nan nan nan nan nan nan nan nan nan nan nan nan nan nan nan nan nan nan nan nan nan nan nan nan nan nan nan nan nan nan nan nan 40 40 41 40 39 40 40 33 30 27
38 42 47 51 52 51 54 60 61 59 58 59 60 60 59 nan nan 59 58 58 59 nan 54 51 49 47 46 47 49 50 nan nan nan 42 nan nan nan nan nan nan nan nan nan nan nan nan nan nan nan nan nan nan nan nan nan nan nan nan nan nan nan nan nan nan nan nan nan nan nan nan nan nan nan nan nan 38 39 39 nan 40 40 40 41 35 32
41 46 52 52 52 53 58 60 62 62 63 63 62 nan nan nan nan nan nan nan nan nan nan nan nan nan nan 46 46 47 nan nan nan nan nan nan nan nan nan nan nan nan nan nan nan nan nan nan nan nan nan nan nan nan nan nan nan nan nan nan nan nan nan nan nan nan nan nan nan nan nan nan nan nan nan nan nan nan nan nan nan 42 40 40 38
43 46 50 53 55 57 58 58 62 64 65 nan nan nan nan nan nan nan nan nan nan nan nan nan nan nan nan nan nan nan nan nan nan nan nan nan nan nan nan nan nan nan nan nan nan nan nan nan nan nan nan nan nan nan nan nan nan nan nan nan nan nan nan nan nan nan nan nan nan nan nan nan nan nan nan nan nan nan nan nan nan nan 42 41 39
46 50 53 57 59 59 59 60 64 nan nan nan nan nan 62 59 58 nan nan nan nan nan nan nan nan nan nan nan nan nan nan nan nan nan nan nan nan nan nan nan nan nan nan nan nan nan nan nan nan nan nan nan nan nan nan nan nan nan nan nan nan nan nan nan nan nan nan nan nan nan nan nan nan nan nan nan nan nan nan nan nan nan nan nan nan
53 55 58 57 59 60 59 61 63 65 nan nan nan nan nan nan nan nan nan nan nan nan nan nan nan nan nan nan nan nan nan nan nan nan nan nan nan nan nan nan nan nan nan nan nan nan nan nan nan nan nan nan nan nan nan nan nan nan nan nan nan nan nan nan nan nan nan nan nan nan nan nan nan nan nan nan nan nan nan nan nan nan nan nan nan
55 57 61 60 60 59 61 62 nan nan 62 nan nan nan nan nan nan nan nan nan nan nan nan nan nan nan nan nan nan nan nan nan nan nan nan nan nan nan nan nan nan nan nan nan nan nan nan nan nan nan nan nan nan nan nan nan nan nan nan nan nan nan nan nan nan nan nan nan nan nan nan nan nan nan nan nan nan nan nan nan nan nan nan nan nan
56 60 62 61 59 59 60 59 59 59 61 61 nan nan nan nan 56 53 50 nan nan nan nan nan nan nan nan nan nan nan nan nan nan nan nan nan nan nan nan nan nan nan nan nan nan nan nan nan nan nan nan nan nan nan nan nan nan nan nan nan nan nan nan nan nan nan nan nan nan nan nan nan nan nan nan nan nan nan nan nan nan nan nan nan nan
56 57 60 62 59 57 56 56 58 59 59 59 58 57 56 54 52 51 51 nan nan nan nan nan nan nan nan nan nan nan nan nan nan nan nan nan nan nan nan nan nan nan nan nan nan nan nan nan nan nan nan nan nan nan nan nan nan nan nan nan nan nan nan nan nan nan nan nan nan nan nan nan nan nan nan nan nan nan nan nan nan nan nan nan nan
53 54 52 55 58 58 58 58 57 55 53 51 52 54 54 53 51 50 nan nan nan nan nan nan nan nan nan nan nan nan nan nan nan nan nan nan nan nan nan nan nan nan nan nan nan nan nan nan nan nan nan nan nan nan nan nan nan nan nan nan nan nan nan nan nan nan nan nan nan nan nan nan nan nan nan nan nan nan nan nan nan nan nan nan nan
51 53 55 56 56 57 58 58 57 56 54 52 54 53 52 52 50 49 nan nan nan nan nan nan nan nan nan nan nan nan nan nan nan nan nan nan nan nan nan nan nan nan nan nan nan nan nan nan nan nan nan nan nan nan nan nan nan nan nan nan nan nan nan nan nan nan nan nan nan nan nan nan nan nan nan nan nan nan nan nan nan nan nan nan nan
53 54 55 55 56 57 57 56 56 55 54 52 51 52 50 49 49 46 nan nan nan nan nan nan nan nan nan nan nan nan nan nan nan nan nan nan nan nan nan nan nan nan nan nan nan nan nan nan nan nan nan nan nan nan nan nan nan nan nan nan nan nan nan nan nan nan nan nan nan nan nan nan nan nan nan nan nan nan nan nan nan nan nan nan nan
52 54 58 59 57 56 56 56 55 54 53 52 52 51 50 nan nan nan nan nan nan nan nan nan nan nan nan nan nan nan nan nan nan nan nan nan nan nan nan nan nan nan nan nan nan nan nan nan nan nan nan nan nan nan nan nan nan nan nan nan nan nan nan nan nan nan nan nan nan nan nan nan nan nan nan nan nan nan nan nan nan nan nan nan nan
53 53 54 56 53 54 53 53 53 53 50 50 50 50 49 nan nan nan nan nan nan nan nan nan nan nan nan nan nan nan nan nan nan nan nan nan nan nan nan nan nan nan nan nan nan nan nan nan nan nan nan nan nan nan nan nan nan nan nan nan nan nan nan nan nan nan nan nan nan nan nan nan nan nan nan nan nan nan nan nan nan nan nan nan nan
55 52 53 52 52 51 50 50 50 50 49 49 51 51 nan nan nan nan nan nan nan nan nan nan nan nan nan nan nan nan nan nan nan nan nan nan nan nan nan nan nan nan nan nan nan nan nan nan nan nan nan nan nan nan nan nan nan nan nan nan nan nan nan nan nan nan nan nan nan nan nan nan nan nan nan nan nan nan nan nan nan nan nan nan nan
55 53 52 52 50 48 47 47 47 48 49 50 49 nan nan nan nan nan nan nan nan nan nan nan nan nan nan nan nan nan nan nan nan nan nan nan nan nan nan nan nan nan nan nan nan nan nan nan nan nan nan nan nan nan nan nan nan nan nan nan nan nan nan nan nan nan nan nan nan nan nan nan nan nan nan nan nan nan nan nan nan nan nan nan nan
53 53 52 49 47 46 47 47 47 48 51 48 47 nan nan nan nan nan nan nan nan nan nan nan nan nan nan nan nan nan nan nan nan nan nan nan nan nan nan nan nan nan nan nan nan nan nan nan nan nan nan nan nan nan nan nan nan nan nan nan nan nan nan nan nan nan nan nan nan nan nan nan nan nan nan nan nan nan nan nan nan nan nan nan nan
51 51 50 49 49 48 47 48 49 47 46 49 nan nan nan nan nan nan nan nan nan nan nan nan nan nan nan nan nan nan nan nan nan nan nan nan nan nan nan nan nan nan nan nan nan nan nan nan nan nan nan nan nan nan nan nan nan nan nan nan nan nan nan nan nan nan nan nan nan nan nan nan nan nan nan nan nan nan nan nan nan nan nan nan nan
50 50 49 50 48 48 47 47 48 48 nan nan nan nan nan nan nan nan nan nan nan nan nan nan nan nan nan nan nan nan nan nan nan nan nan nan nan nan nan nan nan nan nan nan nan nan nan nan nan nan nan nan nan nan nan nan nan nan nan nan nan nan nan nan nan nan nan nan nan nan nan nan nan nan nan nan nan nan nan nan nan nan nan nan nan
46 48 47 47 46 46 47 45 43 nan nan nan nan nan nan nan nan nan nan nan nan nan nan nan nan nan nan nan nan nan nan nan nan nan nan nan nan nan nan nan nan nan nan nan nan nan nan nan nan nan nan nan nan nan nan nan nan nan nan nan nan nan nan nan nan nan nan nan nan nan nan nan nan nan nan nan nan nan nan nan nan nan nan nan nan
nan nan nan 44 42 41 nan nan nan nan nan nan nan nan nan nan nan nan nan nan nan nan nan nan nan nan nan nan nan nan nan nan nan nan nan nan nan nan nan nan nan nan nan nan nan nan nan nan nan nan nan nan nan nan nan nan nan nan nan nan nan nan nan nan nan nan nan nan nan nan nan nan nan nan nan nan nan nan nan nan nan nan nan nan nan
nan nan nan 39 37 36 nan nan nan 36 nan nan nan nan nan nan nan nan nan nan nan nan nan nan nan nan nan nan nan nan nan nan nan nan nan nan nan nan nan nan nan nan nan nan nan nan nan nan nan nan nan nan nan nan nan nan nan nan nan nan nan nan nan nan nan nan nan nan nan nan nan nan nan nan nan nan nan nan nan nan nan nan nan nan nan
nan nan nan nan 35 nan nan nan nan nan nan nan nan nan nan nan nan nan nan nan nan nan nan nan nan nan nan nan nan nan nan nan nan nan nan nan nan nan nan nan nan nan nan nan nan nan nan nan nan nan nan nan nan nan nan nan nan nan nan nan nan nan nan nan nan nan nan nan nan nan nan nan nan nan nan nan nan nan nan nan nan nan nan nan nan
nan nan nan nan nan nan nan nan nan nan nan nan nan nan nan nan nan nan nan nan nan nan nan nan nan nan nan nan nan nan nan nan nan nan nan nan nan nan nan nan nan nan nan nan nan nan nan nan nan nan nan nan nan nan nan nan nan nan nan nan nan nan nan nan nan nan nan nan nan nan nan nan nan nan nan nan nan nan nan nan nan nan nan nan nan
nan nan nan nan nan nan nan nan nan nan nan nan nan nan nan nan nan nan nan nan nan nan nan nan nan nan nan nan nan nan nan nan nan nan nan nan nan nan nan nan nan nan nan nan nan nan nan nan nan nan nan nan nan nan nan nan nan nan nan nan nan nan nan nan nan nan nan nan nan nan nan nan nan nan nan nan nan nan nan nan nan nan nan nan nan
Wind_Direction
312 312 312 311 312 312 311 311 nan nan 318 319 nan nan nan nan nan nan 315 313 313 312 313 316 320 323 323 323 323 322 321 320 320 319 319 318 318 319 317 316 317 317 317 318 318 317 318 316 313 310 nan nan nan nan nan nan nan nan nan nan nan nan nan nan nan nan nan nan nan nan nan nan nan nan nan nan nan nan 237 235 236 237 237 235 233
311 310 310 313 313 312 312 313 317 nan nan nan 325 nan 327 326 324 318 nan nan 313 314 318 322 324 325 324 323 322 322 322 323 322 321 320 319 318 317 317 317 319 320 318 319 318 317 316 313 310 310 nan nan nan nan nan nan nan nan nan nan nan nan nan nan nan nan nan nan nan nan nan nan nan nan 244 241 242 243 240 237 238 238 nan nan 233
309 307 309 311 312 312 314 315 319 nan nan 323 nan 326 325 326 323 319 315 314 314 317 321 324 326 328 327 326 nan nan 323 323 322 322 322 321 319 317 317 318 321 321 319 318 318 316 317 314 311 310 nan nan nan nan nan nan nan nan nan nan nan nan nan nan nan nan nan nan nan nan nan nan nan nan nan 239 241 243 240 239 240 239 nan nan nan
308 306 308 310 312 312 315 318 320 323 324 322 323 nan nan nan nan 316 315 313 315 316 319 324 326 nan nan nan nan 323 324 323 324 323 323 320 315 313 312 316 322 323 321 319 317 317 317 314 312 310 310 nan nan nan nan nan nan nan nan nan nan nan nan nan nan nan nan nan nan nan nan nan nan nan nan nan 236 241 242 239 241 241 239 nan nan
310 307 307 311 311 313 317 318 320 321 323 321 nan nan nan nan 315 319 314 nan nan nan nan nan nan nan nan nan nan 324 326 326 323 322 317 313 317 320 320 323 325 323 320 319 317 315 315 312 311 308 307 310 nan nan nan nan nan nan nan nan nan nan nan nan nan nan nan nan nan nan nan nan nan nan nan 235 234 238 241 238 238 241 241 236 229
310 306 306 308 310 315 317 316 319 321 nan nan nan nan nan nan nan nan nan nan nan nan nan nan nan nan nan nan nan nan nan 323 324 320 317 319 319 320 321 322 321 320 319 317 315 311 310 310 309 307 307 310 nan nan nan nan nan nan nan nan nan nan nan nan nan nan nan nan nan nan nan nan nan nan nan nan 231 232 237 238 235 237 240 237 231
306 305 306 308 311 314 316 317 nan nan 321 nan nan nan nan nan nan nan nan nan nan nan nan nan nan nan nan nan nan 321 322 322 nan 318 320 319 320 319 321 322 321 320 317 314 310 308 309 310 309 311 311 309 310 nan nan nan nan nan nan nan nan nan nan nan nan nan nan nan nan nan nan nan nan nan nan nan 232 232 232 235 235 235 238 239 232
306 304 304 306 309 313 316 317 320 nan 318 315 314 nan nan nan nan 313 nan nan nan nan nan nan nan nan nan nan nan nan nan 316 319 321 321 320 318 319 320 321 319 315 312 310 309 310 311 310 310 310 312 301 288 nan nan nan nan nan nan nan nan nan nan nan nan nan nan nan nan nan nan nan nan nan nan nan nan 230 234 236 233 231 234 236 234
305 302 303 306 310 313 314 314 315 315 313 312 311 311 nan nan 317 314 313 315 319 nan nan nan nan nan nan nan nan nan 317 321 320 321 320 319 318 320 321 321 318 314 311 310 310 311 309 306 305 304 292 292 nan nan nan nan nan nan nan nan nan nan nan nan nan nan nan nan nan nan nan nan nan nan nan nan nan nan nan 230 231 229 229 231 233
303 303 307 309 310 312 313 312 313 313 311 310 310 313 317 318 317 317 317 320 323 326 326 326 325 324 nan nan nan 319 320 321 323 326 324 320 319 319 319 318 316 314 312 311 310 308 305 304 302 296 nan nan nan 311 nan nan nan nan 307 nan nan nan nan nan nan nan nan nan nan nan nan nan nan nan nan nan nan nan nan nan 225 224 227 229 230
304 306 311 307 308 308 309 312 312 313 312 311 311 315 319 318 318 318 318 320 324 326 326 327 326 nan nan nan nan 321 322 323 327 nan nan 326 320 316 317 316 315 315 314 312 nan nan 305 304 303 307 305 305 308 316 316 nan nan nan nan nan nan nan 309 305 302 nan nan nan nan nan nan nan nan nan nan nan nan nan nan nan nan nan nan nan nan
306 306 308 305 305 305 306 310 313 313 311 312 315 318 317 317 317 316 317 321 324 325 326 327 325 322 322 nan nan 323 nan nan nan nan nan nan nan 315 315 315 314 313 313 313 312 308 307 305 307 303 301 303 307 309 313 316 315 313 318 316 316 323 322 315 309 nan nan nan nan nan nan nan nan nan nan nan nan nan nan nan nan nan nan nan 224
304 307 306 304 304 300 302 309 313 312 311 313 316 315 315 315 315 315 320 323 323 324 326 325 323 322 322 nan nan 323 nan 326 nan nan nan nan nan nan nan 317 314 314 315 314 311 309 307 306 305 304 301 307 308 307 306 310 316 321 317 317 325 328 322 318 318 316 nan nan nan nan nan nan nan nan nan nan nan nan nan nan nan nan nan nan nan
304 305 305 304 301 298 300 307 310 310 310 313 314 314 313 315 317 319 321 322 323 324 323 323 323 322 nan nan nan 323 323 323 323 nan nan nan nan nan 320 318 315 317 319 316 312 312 311 307 306 303 299 298 304 308 311 315 314 312 315 320 319 318 316 316 nan nan nan nan nan nan nan nan nan nan nan nan nan nan nan nan nan nan nan nan nan
301 301 302 301 298 297 300 303 307 307 310 313 314 314 315 318 321 322 322 323 323 323 322 321 321 321 322 322 322 322 320 321 320 nan nan 318 321 nan nan nan nan 321 323 318 317 319 314 310 307 306 299 300 304 309 313 312 311 313 316 319 320 316 nan nan nan nan nan nan nan nan nan nan nan nan nan nan nan nan nan nan nan nan nan 218 215
303 302 301 299 300 299 299 300 304 307 310 313 315 317 319 321 322 321 320 319 319 318 317 318 319 321 322 321 320 321 317 318 317 318 320 320 nan nan nan nan nan 323 325 319 318 322 317 311 309 304 303 306 311 312 313 311 312 315 319 320 nan nan nan nan nan nan nan nan nan nan nan nan nan nan nan nan nan nan nan nan nan nan nan nan nan
302 302 301 300 301 300 297 300 305 310 311 314 317 319 320 320 319 317 317 317 318 319 318 318 318 320 320 318 318 316 311 313 315 319 318 nan nan nan nan 317 311 320 328 324 319 316 311 308 308 308 305 308 301 304 310 314 315 316 nan nan nan nan nan nan nan nan nan nan nan nan nan nan nan nan nan nan nan nan nan nan nan nan nan nan nan
299 299 299 300 300 298 299 303 310 312 311 314 318 318 317 316 317 316 317 316 318 320 318 316 317 318 316 nan 308 309 307 306 309 312 nan nan nan nan nan nan 305 312 325 324 317 310 309 315 312 310 309 301 299 309 314 319 316 nan nan nan nan nan nan nan nan nan nan nan nan nan nan nan nan nan nan nan nan nan nan nan nan nan nan nan nan
296 298 300 300 298 299 305 310 313 313 312 314 315 314 312 313 315 314 316 316 318 316 315 315 314 316 312 nan nan nan nan nan nan nan nan nan nan nan nan 307 300 305 313 316 311 307 302 304 309 306 309 305 311 316 320 317 nan nan nan nan nan nan nan nan nan nan nan nan nan nan nan nan nan nan nan nan nan nan nan nan nan nan nan nan nan
298 302 303 302 301 304 308 312 311 310 310 310 312 312 308 306 310 313 312 312 313 316 315 314 315 314 310 310 nan nan nan nan 311 nan nan nan nan nan nan 300 301 303 303 303 302 301 300 297 300 305 307 307 nan nan nan nan nan nan nan nan nan nan nan nan nan nan nan nan nan nan nan nan nan nan nan nan nan nan nan nan nan nan nan nan nan
301 307 307 304 304 306 306 309 312 308 302 307 310 307 302 304 306 309 313 314 315 316 314 315 312 308 nan nan nan nan nan nan nan nan nan nan nan nan 301 303 305 nan nan nan nan nan 298 302 313 308 305 nan nan nan 315 311 317 317 320 321 nan nan nan nan nan nan nan nan nan nan nan nan nan nan 206 nan nan nan nan nan nan nan nan nan nan
306 305 302 301 302 303 301 305 311 304 296 300 305 304 304 304 305 303 306 311 316 314 312 311 309 307 nan nan nan nan 310 312 nan nan nan nan 300 298 302 nan nan nan nan nan nan nan 297 297 302 307 nan nan nan 314 312 308 308 312 316 329 nan nan nan nan nan nan nan nan nan nan nan nan nan 198 202 205 nan nan nan nan nan nan nan nan nan
301 301 299 299 299 297 296 299 300 298 297 300 303 303 305 304 nan 309 311 313 312 309 308 308 307 309 310 nan 307 307 306 303 nan 305 nan nan 298 303 305 nan nan nan nan nan nan nan nan 301 302 nan nan nan 301 301 300 296 302 311 322 nan nan nan nan nan nan nan nan nan nan nan nan nan nan 195 197 197 nan nan nan nan nan nan nan nan nan
287 285 286 288 289 289 290 294 298 296 298 302 304 305 305 304 304 307 312 310 309 307 306 307 308 309 307 307 307 309 306 304 306 nan nan 297 298 295 nan nan nan nan nan nan nan nan nan nan nan nan nan nan 300 301 303 302 nan nan nan nan nan nan nan nan nan nan nan nan nan nan nan nan nan nan 191 189 185 nan 181 nan nan nan nan nan nan
283 284 287 290 291 291 291 295 298 297 300 303 302 302 302 303 305 nan 310 308 307 306 308 309 nan nan 305 305 305 nan 302 303 301 298 295 294 294 nan nan nan nan nan nan nan nan nan nan nan nan 299 nan nan 302 305 nan nan nan nan nan nan nan nan nan nan nan nan nan nan nan nan nan nan nan nan 182 184 182 188 193 189 nan nan nan nan nan
280 283 287 288 290 292 295 299 300 300 299 300 301 303 305 307 308 308 306 304 305 306 309 309 308 306 304 304 304 303 302 302 301 301 300 300 300 nan nan nan nan nan nan nan nan nan nan nan nan nan nan nan 301 304 nan nan nan nan nan nan nan nan nan nan nan nan nan nan nan nan nan nan nan nan nan 187 193 195 194 196 193 203 nan nan nan
275 280 286 293 296 298 298 299 298 296 295 295 295 298 302 304 304 303 302 302 304 305 305 307 307 306 307 306 305 302 302 nan nan 304 306 305 nan nan nan nan nan nan nan nan nan nan nan nan nan nan nan nan nan nan nan nan nan nan nan nan nan nan nan nan nan nan nan nan nan nan nan nan nan nan nan 195 198 198 199 198 200 200 204 221 225
278 287 292 294 294 294 294 296 295 291 289 292 295 297 299 nan nan 301 301 303 304 nan 305 305 305 306 309 307 305 305 nan nan nan 307 nan nan nan nan nan nan nan nan nan nan nan nan nan nan nan nan nan nan nan nan nan nan nan nan nan nan nan nan nan nan nan nan nan nan nan nan nan nan nan nan nan 198 201 200 nan 202 202 204 207 210 219
276 288 293 293 290 290 291 293 293 293 294 294 295 nan nan nan nan nan nan nan nan nan nan nan nan nan nan 302 305 308 nan nan nan nan nan nan nan nan nan nan nan nan nan nan nan nan nan nan nan nan nan nan nan nan nan nan nan nan nan nan nan nan nan nan nan nan nan nan nan nan nan nan nan nan nan nan nan nan nan nan nan 207 208 216 218
281 290 290 289 290 292 293 294 294 297 299 nan nan nan nan nan nan nan nan nan nan nan nan nan nan nan nan nan nan nan nan nan nan nan nan nan nan nan nan nan nan nan nan nan nan nan nan nan nan nan nan nan nan nan nan nan nan nan nan nan nan nan nan nan nan nan nan nan nan nan nan nan nan nan nan nan nan nan nan nan nan nan 210 211 214
286 291 290 292 295 296 297 295 297 nan nan nan nan nan 298 294 291 nan nan nan nan nan nan nan nan nan nan nan nan nan nan nan nan nan nan nan nan nan nan nan nan nan nan nan nan nan nan nan nan nan nan nan nan nan nan nan nan nan nan nan nan nan nan nan nan nan nan nan nan nan nan nan nan nan nan nan nan nan nan nan nan nan nan nan nan
291 291 290 291 294 297 296 296 296 296 nan nan nan nan nan nan nan nan nan nan nan nan nan nan nan nan nan nan nan nan nan nan nan nan nan nan nan nan nan nan nan nan nan nan nan nan nan nan nan nan nan nan nan nan nan nan nan nan nan nan nan nan nan nan nan nan nan nan nan nan nan nan nan nan nan nan nan nan nan nan nan nan nan nan nan
289 289 289 292 293 294 294 294 nan nan 298 nan nan nan nan nan nan nan nan nan nan nan nan nan nan nan nan nan nan nan nan nan nan nan nan nan nan nan nan nan nan nan nan nan nan nan nan nan nan nan nan nan nan nan nan nan nan nan nan nan nan nan nan nan nan nan nan nan nan nan nan nan nan nan nan nan nan nan nan nan nan nan nan nan nan
287 288 290 294 294 296 297 298 298 298 300 302 nan nan nan nan 306 308 307 nan nan nan nan nan nan nan nan nan nan nan nan nan nan nan nan nan nan nan nan nan nan nan nan nan nan nan nan nan nan nan nan nan nan nan nan nan nan nan nan nan nan nan nan nan nan nan nan nan nan nan nan nan nan nan nan nan nan nan nan nan nan nan nan nan nan
286 290 294 293 291 292 293 294 296 299 300 302 305 307 306 305 306 308 309 nan nan nan nan nan nan nan nan nan nan nan nan nan nan nan nan nan nan nan nan nan nan nan nan nan nan nan nan nan nan nan nan nan nan nan nan nan nan nan nan nan nan nan nan nan nan nan nan nan nan nan nan nan nan nan nan nan nan nan nan nan nan nan nan nan nan
286 286 286 288 289 291 291 292 291 292 296 298 299 300 304 305 306 308 nan nan nan nan nan nan nan nan nan nan nan nan nan nan nan nan nan nan nan nan nan nan nan nan nan nan nan nan nan nan nan nan nan nan nan nan nan nan nan nan nan nan nan nan nan nan nan nan nan nan nan nan nan nan nan nan nan nan nan nan nan nan nan nan nan nan nan
285 285 285 286 288 289 291 293 295 298 299 299 299 301 303 305 306 306 nan nan nan nan nan nan nan nan nan nan nan nan nan nan nan nan nan nan nan nan nan nan nan nan nan nan nan nan nan nan nan nan nan nan nan nan nan nan nan nan nan nan nan nan nan nan nan nan nan nan nan nan nan nan nan nan nan nan nan nan nan nan nan nan nan nan nan
285 287 287 288 289 290 291 294 298 300 300 301 300 300 301 303 304 302 nan nan nan nan nan nan nan nan nan nan nan nan nan nan nan nan nan nan nan nan nan nan nan nan nan nan nan nan nan nan nan nan nan nan nan nan nan nan nan nan nan nan nan nan nan nan nan nan nan nan nan nan nan nan nan nan nan nan nan nan nan nan nan nan nan nan nan
283 286 290 291 291 293 295 297 299 299 299 298 299 299 300 nan nan nan nan nan nan nan nan nan nan nan nan nan nan nan nan nan nan nan nan nan nan nan nan nan nan nan nan nan nan nan nan nan nan nan nan nan nan nan nan nan nan nan nan nan nan nan nan nan nan nan nan nan nan nan nan nan nan nan nan nan nan nan nan nan nan nan nan nan nan
284 283 287 288 288 292 296 298 298 298 297 297 298 298 299 nan nan nan nan nan nan nan nan nan nan nan nan nan nan nan nan nan nan nan nan nan nan nan nan nan nan nan nan nan nan nan nan nan nan nan nan nan nan nan nan nan nan nan nan nan nan nan nan nan nan nan nan nan nan nan nan nan nan nan nan nan nan nan nan nan nan nan nan nan nan
282 284 284 286 292 293 296 297 297 297 298 297 297 295 nan nan nan nan nan nan nan nan nan nan nan nan nan nan nan nan nan nan nan nan nan nan nan nan nan nan nan nan nan nan nan nan nan nan nan nan nan nan nan nan nan nan nan nan nan nan nan nan nan nan nan nan nan nan nan nan nan nan nan nan nan nan nan nan nan nan nan nan nan nan nan
283 283 284 285 290 293 295 295 297 297 298 296 295 nan nan nan nan nan nan nan nan nan nan nan nan nan nan nan nan nan nan nan nan nan nan nan nan nan nan nan nan nan nan nan nan nan nan nan nan nan nan nan nan nan nan nan nan nan nan nan nan nan nan nan nan nan nan nan nan nan nan nan nan nan nan nan nan nan nan nan nan nan nan nan nan
284 284 284 285 286 290 294 294 295 296 294 294 295 nan nan nan nan nan nan nan nan nan nan nan nan nan nan nan nan nan nan nan nan nan nan nan nan nan nan nan nan nan nan nan nan nan nan nan nan nan nan nan nan nan nan nan nan nan nan nan nan nan nan nan nan nan nan nan nan nan nan nan nan nan nan nan nan nan nan nan nan nan nan nan nan
287 286 286 287 289 290 289 288 287 289 292 295 nan nan nan nan nan nan nan nan nan nan nan nan nan nan nan nan nan nan nan nan nan nan nan nan nan nan nan nan nan nan nan nan nan nan nan nan nan nan nan nan nan nan nan nan nan nan nan nan nan nan nan nan nan nan nan nan nan nan nan nan nan nan nan nan nan nan nan nan nan nan nan nan nan
284 286 286 286 289 290 290 289 289 291 nan nan nan nan nan nan nan nan nan nan nan nan nan nan nan nan nan nan nan nan nan nan nan nan nan nan nan nan nan nan nan nan nan nan nan nan nan nan nan nan nan nan nan nan nan nan nan nan nan nan nan nan nan nan nan nan nan nan nan nan nan nan nan nan nan nan nan nan nan nan nan nan nan nan nan
284 288 287 288 289 290 289 289 290 nan nan nan nan nan nan nan nan nan nan nan nan nan nan nan nan nan nan nan nan nan nan nan nan nan nan nan nan nan nan nan nan nan nan nan nan nan nan nan nan nan nan nan nan nan nan nan nan nan nan nan nan nan nan nan nan nan nan nan nan nan nan nan nan nan nan nan nan nan nan nan nan nan nan nan nan
nan nan nan 294 292 292 nan nan nan nan nan nan nan nan nan nan nan nan nan nan nan nan nan nan nan nan nan nan nan nan nan nan nan nan nan nan nan nan nan nan nan nan nan nan nan nan nan nan nan nan nan nan nan nan nan nan nan nan nan nan nan nan nan nan nan nan nan nan nan nan nan nan nan nan nan nan nan nan nan nan nan nan nan nan nan
nan nan nan 296 296 295 nan nan nan 295 nan nan nan nan nan nan nan nan nan nan nan nan nan nan nan nan nan nan nan nan nan nan nan nan nan nan nan nan nan nan nan nan nan nan nan nan nan nan nan nan nan nan nan nan nan nan nan nan nan nan nan nan nan nan nan nan nan nan nan nan nan nan nan nan nan nan nan nan nan nan nan nan nan nan nan
nan nan nan nan 295 nan nan nan nan nan nan nan nan nan nan nan nan nan nan nan nan nan nan nan nan nan nan nan nan nan nan nan nan nan nan nan nan nan nan nan nan nan nan nan nan nan nan nan nan nan nan nan nan nan nan nan nan nan nan nan nan nan nan nan nan nan nan nan nan nan nan nan nan nan nan nan nan nan nan nan nan nan nan nan nan
nan nan nan nan nan nan nan nan nan nan nan nan nan nan nan nan nan nan nan nan nan nan nan nan nan nan nan nan nan nan nan nan nan nan nan nan nan nan nan nan nan nan nan nan nan nan nan nan nan nan nan nan nan nan nan nan nan nan nan nan nan nan nan nan nan nan nan nan nan nan nan nan nan nan nan nan nan nan nan nan nan nan nan nan nan
nan nan nan nan nan nan nan nan nan nan nan nan nan nan nan nan nan nan nan nan nan nan nan nan nan nan nan nan nan nan nan nan nan nan nan nan nan nan nan nan nan nan nan nan nan nan nan nan nan nan nan nan nan nan nan nan nan nan nan nan nan nan nan nan nan nan nan nan nan nan nan nan nan nan nan nan nan nan nan nan nan nan nan nan nan